| time (UTC) | temp C | wind direction | speed KPH | gust KPH | rain 1hr cm | rain 24hr cm | rain mn cm | humidity % | barometer mb |
| 20260504184218 | 9 | 210 | 4.8 | 8.0 | 0.00 | 0.46 | 0.00 | 72 | 1015.1 |
| 20260504183016 | 10 | 202 | 4.8 | 8.0 | 0.00 | 0.61 | 0.00 | 68 | 1014.8 |
| 20260504181818 | 10 | 226 | 1.6 | 1.6 | 0.00 | 0.61 | 0.00 | 63 | 1014.8 |
| 20260504180619 | 10 | 262 | 3.2 | 4.8 | 0.00 | 0.61 | 0.00 | 60 | 1014.6 |
| 20260504175419 | 11 | 304 | 9.7 | 16.1 | 0.00 | 0.64 | 0.00 | 54 | 1014.3 |
| 20260504174217 | 11 | 302 | 9.7 | 14.5 | 0.00 | 0.64 | 0.00 | 57 | 1014.0 |
| 20260504173016 | 11 | 273 | 4.8 | 9.7 | 0.00 | 0.64 | 0.00 | 57 | 1014.0 |
| 20260504171816 | 12 | 295 | 3.2 | 8.0 | 0.00 | 0.64 | 0.00 | 58 | 1013.9 |
| 20260504150617 | 13 | 285 | 14.5 | 22.5 | 0.00 | 0.64 | 0.00 | 56 | 1010.3 |
| 20260504140617 | 15 | 245 | 8.0 | 16.1 | 0.00 | 0.64 | 0.64 | 58 | 1008.9 |
| 20260504130618 | 13 | 107 | 0.0 | 0.0 | 0.00 | 0.64 | 0.64 | 71 | 1007.4 |
| 20260504110617 | 18 | 28 | 4.8 | 11.3 | 0.00 | 0.64 | 0.64 | 45 | 1003.6 |
| 20260504081816 | 22 | 22 | 3.2 | 9.7 | 0.00 | 0.64 | 0.64 | 43 | 997.1 |
| 20260504080616 | 23 | 337 | 19.3 | 32.2 | 0.00 | 0.64 | 0.64 | 42 | 996.6 |
| 20260503235821 | 17 | 233 | 1.6 | 3.2 | 0.00 | 0.64 | 0.64 | 95 | 997.4 |
| 20260503234622 | 17 | 297 | 3.2 | 8.0 | 0.00 | 0.64 | 0.64 | 97 | 997.1 |
| 20260503233421 | 16 | 284 | 1.6 | 3.2 | 0.00 | 0.64 | 0.64 | 97 | 997.4 |
| 20260503232221 | 17 | 22 | 1.6 | 3.2 | 0.00 | 0.64 | 0.64 | 96 | 997.2 |
| 20260503231022 | 17 | 133 | 4.8 | 8.0 | 0.00 | 0.64 | 0.64 | 96 | 997.5 |
| 20260503224624 | 16 | 114 | 0.0 | 0.0 | 0.00 | 0.64 | 0.64 | 99 | 997.6 |
| 20260503223421 | 15 | 205 | 3.2 | 4.8 | 0.00 | 0.64 | 0.64 | 99 | 997.7 |
| 20260503222222 | 15 | 209 | 3.2 | 8.0 | 0.00 | 0.64 | 0.64 | 99 | 997.5 |
| 20260503221022 | 14 | 315 | 3.2 | 4.8 | 0.00 | 0.64 | 0.64 | 99 | 996.9 |
| 20260503215822 | 14 | 308 | 1.6 | 3.2 | 0.00 | 0.64 | 0.64 | 99 | 997.5 |
| 20260503214621 | 14 | 199 | 0.0 | 0.0 | 0.00 | 0.64 | 0.64 | 99 | 997.4 |
| 20260503213423 | 14 | 291 | 1.6 | 3.2 | 0.00 | 0.64 | 0.64 | 99 | 997.2 |
| 20260503212221 | 14 | 166 | 0.0 | 0.0 | 0.00 | 0.64 | 0.64 | 99 | 997.1 |
| 20260503211022 | 13 | 54 | 0.0 | 1.6 | 0.05 | 0.64 | 0.64 | 99 | 997.0 |
| 20260503205822 | 13 | 321 | 0.0 | 0.0 | 0.05 | 0.64 | 0.64 | 99 | 997.2 |
| 20260503204622 | 13 | 311 | 0.0 | 0.0 | 0.46 | 0.64 | 0.64 | 99 | 997.5 |
| 20260503203421 | 13 | 289 | 4.8 | 4.8 | 0.46 | 0.64 | 0.64 | 99 | 997.7 |
| 20260503202222 | 13 | 251 | 3.2 | 4.8 | 0.46 | 0.64 | 0.64 | 99 | 997.8 |
| 20260503201022 | 13 | 264 | 1.6 | 1.6 | 0.41 | 0.58 | 0.58 | 99 | 997.4 |
| 20260503195821 | 13 | 264 | 1.6 | 1.6 | 0.41 | 0.58 | 0.58 | 99 | 997.3 |
| 20260503194620 | 14 | 292 | 1.6 | 1.6 | 0.00 | 0.18 | 0.18 | 99 | 997.8 |
| 20260503193422 | 14 | 292 | 1.6 | 1.6 | 0.15 | 0.18 | 0.18 | 99 | 997.6 |
| 20260503192223 | 14 | 292 | 1.6 | 1.6 | 0.15 | 0.18 | 0.18 | 99 | 998.1 |
| 20260503191021 | 14 | 292 | 1.6 | 1.6 | 0.15 | 0.18 | 0.18 | 99 | 997.6 |
| 20260503185821 | 14 | 292 | 1.6 | 1.6 | 0.18 | 0.18 | 0.18 | 99 | 997.7 |